Simultaneous Nadir Overpasses (SNOs) Predictions

Prediction of SNOs between NOAA-19 and METOP-C Satellite Orbit:

Table of predicted SNOs for the next 14.0 days since TLE Epoch: 1/3/2024
Index Date (NOAA-19) Time (NOAA-19) Lat,Lon (NOAA-19) SZA (NOAA-19 ) Date (METOP-C) Time (METOP-C) Lat,Lon (METOP-C) SZA (METOP-C ) Distance(km) Time Diff (sec)
1 01/13/2024 05:06:53 -80.65, -46.88 76.82 01/13/2024 05:08:01 -80.65, -46.91 76.80 0.57 68
2 01/13/2024 05:57:46 80.66, 120.61 103.21 01/13/2024 05:58:42 80.66, 120.53 103.21 1.51 56
3 01/13/2024 06:48:51 -80.66, -72.20 76.81 01/13/2024 06:49:22 -80.66, -72.05 76.79 2.71 31
4 01/13/2024 07:39:44 80.67, 95.29 103.21 01/13/2024 07:40:03 80.67, 95.39 103.23 1.79 19
5 01/13/2024 08:30:47 -80.70, -96.81 76.73 01/13/2024 08:30:42 -80.70, -96.85 76.73 0.72 5
6 01/13/2024 09:21:41 80.69, 70.33 103.26 01/13/2024 09:21:24 80.68, 70.25 103.24 1.59 17
7 01/13/2024 10:12:45 -80.70,-122.13 76.72 01/13/2024 10:12:03 -80.71,-121.99 76.71 2.67 42



Historial Predications of SNOs between NOAA-19 and METOP-C
